Other Public Products
Issued by NWS Charleston, SC

Current Version | Previous Version | Graphics & Text | Print | Product List | Glossary On
Versions: 1 2 3 4 5 6 7 8 9 10 11 12 13 14 15 16 17 18 19 20 21 22 23 24 25 26 27 28 29 30 31 32 33 34 35 36 37 38 39 40 41 42 43 44 45 46 47 48 49 50
128
FPUS82 KCHS 201512
OPUCHS

TEST...KCHS/KSAV Gateway Observations...TEST
National Weather Service Charleston SC
1000 AM EST MON NOV 20 2017

NOTE: "fair" indicates few or no clouds below 12,000 feet with no
significant weather and/or obstructions to visibility.

SCZ050-WAZ558-NCZ071-TXZ119-213-PAZ071-DCZ001-FLZ074-172-MI076-
NYZ176-178-MAZ016-IL014-TNZ027-NJZ106-GAZ044-MD014-201600-

...Gateway Observations for Charleston International...

CITY           SKY/WX    TMP DP  RH WIND       PRES   REMARKS
Chas Airport   MOSUNNY   52  33  48 VRB6      30.28R
Seattle        HVY RAIN  48  47  96 W6        29.50R FOG
Charlotte      SUNNY     47  31  53 CALM      30.28S
Dallas DFW     PTSUNNY   50  34  54 S10       30.19S
Dallas Love    PTSUNNY   52  31  44 S7        30.21S
Philladelphia  MOSUNNY   42  19  39 W16       30.14R
Wash National  SUNNY     44  19  36 W10G18    30.23R
Baltimore      MOSUNNY   42  22  44 W14       30.19R
Miami          PTSUNNY   74  66  76 NE7       30.06S
Detroit        MOSUNNY   36  23  59 SW17      30.04F WCI  26
Newark         PTSUNNY   42  22  44 W17G26    30.05S
Laguardia      PTSUNNY   41  24  51 W14G23    30.04S
J F K          PTSUNNY   41  25  53 W15       30.06S
Boston Logan   MOSUNNY   38  14  37 W28G36    29.88R WCI  26
Ft. Lauderdale PTSUNNY   76  67  73 NE16G26   30.06R
Chicago O`Hare MOSUNNY   39  26  59 SW17G24   29.91F WCI  30
Chicago Midway MOSUNNY   40  27  59 SW15G25   29.93F WCI  32
Houston Bush   PTSUNNY   54  42  64 E8        30.23R
Houston Hobby  PTSUNNY   57  38  48 E9        30.22R
Nashville      MOSUNNY   38  28  67 S5        30.29F WCI  34
Atlanta        MOSUNNY   46  29  51 E3        30.24R

$$

GAZ044-118-TXZ119-213-NCZ071-DCZ001-MDZ014-506-PAZ021-071-NJZ106-
NYZ176-178-MAZ106-OHZ011-021-055-MIZ076-KYZ091-ILZ014-INZ047-
MNZ060-ONZ431-201600-

...Gateway Observations for Savannah International...

CITY           SKY/WX    TMP DP  RH WIND       PRES   REMARKS
Savannah Arpt  MOSUNNY   54  35  48 E8        30.27R
Atlanta        MOSUNNY   46  29  51 E3        30.24R
Charlotte      SUNNY     47  31  53 CALM      30.28S
Dallas DFW     PTSUNNY   50  34  54 S10       30.19S
Houston Bush   PTSUNNY   54  42  64 E8        30.23R
Wash National  SUNNY     44  19  36 W10G18    30.23R
Wash Dulles    SUNNY     41  22  46 NW8       30.21R
Baltimore      MOSUNNY   42  22  44 W14       30.19R
Philadelphia   MOSUNNY   42  19  39 W16       30.14R
Newark         PTSUNNY   42  22  44 W17G26    30.05S
Laguardia      PTSUNNY   41  24  51 W14G23    30.04S
J F K          PTSUNNY   41  25  53 W15       30.06S
Boston         MOSUNNY   38  14  37 W28G36    29.88R WCI  26
Pittsburg      MOSUNNY   32  22  66 SW12      30.16S WCI  23
Akron          MOSUNNY   32  23  69 SW13      30.14F WCI  22
Cleveland      MOSUNNY   34  24  67 SW15      30.13F WCI  24
Cincinnati     PTSUNNY   33  27  78 S8        30.22S WCI  26
Columbus       SUNNY     32  26  78 SW8       30.23R WCI  25
Detroit        MOSUNNY   36  23  59 SW17      30.04F WCI  26
Chicago O`Hare MOSUNNY   39  26  59 SW17G24   29.91F WCI  30
Minneapolis    CLOUDY    34  28  79 SE8       29.61F WCI  27
Indianapolis   CLOUDY    36  23  59 S16       30.16S WCI  26
Toronto Canada PTSUNNY   36  25  64 SW14G22   29.95S WCI  27

$$




USA.gov is the U.S. government's official web portal to all federal, state and local government web resources and services.